| time (UTC) | temp F | wind direction | speed MPH | gust MPH | rain 1hr in | rain 24hr in | rain mn in | humidity % | barometer mb |
| 20260904183053 | 72 | 36 | 6.0 | 7.0 | 0.00 | 0.24 | 0.04 | 91 | 1013.2 |
| 20260904181553 | 72 | 20 | 2.0 | 5.0 | 0.00 | 0.24 | 0.04 | 91 | 1013.4 |
| 20260904180052 | 72 | 36 | 3.0 | 6.0 | 0.00 | 0.24 | 0.04 | 92 | 1013.6 |
| 20260904174550 | 71 | 52 | 3.0 | 7.0 | 0.00 | 0.24 | 0.04 | 92 | 1013.7 |
| 20260904173110 | 71 | 18 | 3.0 | 6.0 | 0.00 | 0.24 | 0.04 | 93 | 1014.0 |
| 20260904171603 | 71 | 33 | 2.0 | 3.0 | 0.02 | 0.24 | 0.04 | 93 | 1014.0 |
| 20260904170046 | 70 | 86 | 0.0 | 2.0 | 0.02 | 0.24 | 0.04 | 94 | 1014.2 |
| 20260904164553 | 70 | 242 | 0.0 | 1.0 | 0.02 | 0.24 | 0.04 | 94 | 1014.5 |
| 20260904163044 | 70 | 240 | 0.0 | 0.0 | 0.02 | 0.24 | 0.04 | 94 | 1014.8 |
| 20260904161543 | 70 | 240 | 0.0 | 0.0 | 0.00 | 0.23 | 0.02 | 93 | 1015.2 |
| 20260904160042 | 70 | 240 | 0.0 | 1.0 | 0.00 | 0.23 | 0.02 | 93 | 1015.4 |
| 20260904154541 | 70 | 219 | 0.0 | 4.0 | 0.00 | 0.23 | 0.02 | 94 | 1015.7 |
| 20260904153039 | 70 | 255 | 0.0 | 4.0 | 0.00 | 0.23 | 0.02 | 94 | 1015.6 |
| 20260904151539 | 69 | 248 | 0.0 | 1.0 | 0.00 | 0.23 | 0.02 | 91 | 1015.4 |
| 20260904150059 | 67 | 165 | 0.0 | 0.0 | 0.00 | 0.23 | 0.02 | 85 | 1015.4 |
| 20260904144535 | 67 | 165 | 0.0 | 0.0 | 0.00 | 0.23 | 0.02 | 82 | 1015.3 |
| 20260904143035 | 66 | 165 | 0.0 | 0.0 | 0.00 | 0.23 | 0.02 | 84 | 1015.2 |
| 20260904141537 | 66 | 165 | 0.0 | 0.0 | 0.02 | 0.23 | 0.02 | 85 | 1015.1 |
| 20260904140038 | 66 | 146 | 0.0 | 0.0 | 0.02 | 0.23 | 0.02 | 84 | 1015.1 |
| 20260904134543 | 66 | 148 | 0.0 | 1.0 | 0.02 | 0.23 | 0.02 | 80 | 1015.2 |
| 20260904133030 | 66 | 148 | 0.0 | 2.0 | 0.02 | 0.23 | 0.02 | 76 | 1014.8 |
| 20260904131531 | 66 | 149 | 0.0 | 2.0 | 0.01 | 0.21 | 0.01 | 74 | 1014.4 |
| 20260904130034 | 65 | 141 | 0.0 | 1.0 | 0.00 | 0.20 | 0.00 | 74 | 1014.4 |
| 20260904124529 | 65 | 141 | 0.0 | 2.0 | 0.00 | 0.20 | 0.00 | 74 | 1014.6 |
| 20260904123028 | 65 | 146 | 0.0 | 1.0 | 0.00 | 0.20 | 0.00 | 74 | 1014.9 |
| 20260904121528 | 65 | 146 | 0.0 | 0.0 | 0.00 | 0.20 | 0.00 | 74 | 1014.8 |
| 20260904120026 | 64 | 148 | 0.0 | 0.0 | 0.00 | 0.20 | 0.00 | 75 | 1014.6 |
| 20260904114532 | 64 | 148 | 0.0 | 1.0 | 0.00 | 0.20 | 0.00 | 76 | 1014.3 |
| 20260904113025 | 64 | 149 | 0.0 | 1.0 | 0.00 | 0.20 | 0.00 | 77 | 1014.2 |
| 20260904111528 | 64 | 141 | 0.0 | 2.0 | 0.00 | 0.20 | 0.00 | 78 | 1014.0 |
| 20260904110023 | 64 | 145 | 0.0 | 2.0 | 0.00 | 0.20 | 0.00 | 79 | 1013.9 |
| 20260904104519 | 64 | 141 | 0.0 | 2.0 | 0.00 | 0.20 | 0.00 | 80 | 1013.8 |
| 20260904103016 | 64 | 149 | 0.0 | 2.0 | 0.00 | 0.20 | 0.00 | 81 | 1013.6 |
| 20260904101516 | 64 | 153 | 0.0 | 2.0 | 0.00 | 0.20 | 0.00 | 82 | 1013.5 |
| 20260904100014 | 64 | 141 | 0.0 | 2.0 | 0.00 | 0.20 | 0.00 | 82 | 1013.5 |
| 20260904094524 | 64 | 138 | 0.0 | 2.0 | 0.00 | 0.21 | 0.00 | 83 | 1013.5 |
| 20260904093011 | 64 | 145 | 0.0 | 2.0 | 0.00 | 0.21 | 0.00 | 85 | 1013.8 |
| 20260904091511 | 64 | 141 | 0.0 | 2.0 | 0.00 | 0.21 | 0.00 | 86 | 1013.8 |
| 20260904090009 | 64 | 142 | 0.0 | 2.0 | 0.00 | 0.21 | 0.00 | 88 | 1013.7 |
| 20260904084512 | 64 | 136 | 1.0 | 2.0 | 0.00 | 0.21 | 0.00 | 90 | 1013.6 |
| 20260904083010 | 65 | 136 | 1.0 | 2.0 | 0.00 | 0.21 | 0.00 | 91 | 1014.0 |
| 20260904081509 | 65 | 137 | 1.0 | 2.0 | 0.00 | 0.21 | 0.00 | 93 | 1013.5 |
| 20260904080004 | 66 | 136 | 1.0 | 2.0 | 0.00 | 0.21 | 0.00 | 94 | 1013.3 |
| 20260904074558 | 67 | 136 | 1.0 | 2.0 | 0.00 | 0.21 | 0.00 | 94 | 1013.4 |
| 20260904073056 | 67 | 138 | 0.0 | 1.0 | 0.00 | 0.21 | 0.00 | 94 | 1013.8 |
| 20260904071554 | 66 | 139 | 0.0 | 1.0 | 0.00 | 0.21 | 0.00 | 94 | 1014.0 |
| 20260904070058 | 68 | 139 | 0.0 | 2.0 | 0.00 | 0.21 | 0.00 | 92 | 1014.1 |
| 20260904064551 | 68 | 326 | 2.0 | 4.0 | 0.00 | 0.21 | 0.00 | 93 | 1014.4 |
| 20260904063053 | 67 | 113 | 0.0 | 1.0 | 0.00 | 0.21 | 0.00 | 94 | 1014.4 |
| 20260904061549 | 67 | 118 | 0.0 | 1.0 | 0.00 | 0.21 | 0.00 | 94 | 1014.3 |
| 20260904060046 | 68 | 135 | 0.0 | 2.0 | 0.00 | 0.21 | 0.00 | 92 | 1014.2 |
| 20260904054544 | 70 | 12 | 3.0 | 6.0 | 0.00 | 0.21 | 0.00 | 91 | 1014.4 |
| 20260904053044 | 70 | 316 | 3.0 | 6.0 | 0.00 | 0.21 | 0.00 | 91 | 1014.4 |
| 20260904051541 | 70 | 309 | 4.0 | 6.0 | 0.00 | 0.21 | 0.00 | 91 | 1014.5 |
| 20260904050040 | 70 | 304 | 4.0 | 6.0 | 0.00 | 0.21 | 0.00 | 91 | 1014.6 |
| 20260904044537 | 70 | 318 | 5.0 | 6.0 | 0.00 | 0.21 | 0.00 | 92 | 1014.5 |
| 20260904043042 | 70 | 304 | 5.0 | 8.0 | 0.00 | 0.21 | 0.00 | 92 | 1014.5 |
| 20260904041533 | 69 | 308 | 5.0 | 6.0 | 0.00 | 0.21 | 0.00 | 94 | 1014.4 |
| 20260904040031 | 69 | 297 | 4.0 | 6.0 | 0.00 | 0.21 | 0.00 | 94 | 1014.2 |
| 20260904034537 | 69 | 280 | 4.0 | 5.0 | 0.00 | 0.21 | 0.21 | 94 | 1014.1 |
| 20260904033027 | 68 | 271 | 4.0 | 5.0 | 0.00 | 0.21 | 0.21 | 80 | 1014.2 |
| 20260904031527 | 66 | 225 | 0.0 | 1.0 | 0.00 | 0.21 | 0.21 | 74 | 1014.1 |
| 20260904030028 | 66 | 219 | 0.0 | 3.0 | 0.00 | 0.21 | 0.21 | 72 | 1014.0 |
| 20260904024526 | 65 | 190 | 0.0 | 2.0 | 0.00 | 0.21 | 0.21 | 79 | 1014.0 |
| 20260904023025 | 65 | 133 | 1.0 | 2.0 | 0.00 | 0.21 | 0.21 | 80 | 1013.8 |
| 20260904021528 | 65 | 170 | 0.0 | 1.0 | 0.00 | 0.21 | 0.21 | 80 | 1013.7 |
| 20260904020025 | 65 | 167 | 0.0 | 1.0 | 0.00 | 0.21 | 0.21 | 81 | 1013.7 |
| 20260904014524 | 65 | 166 | 0.0 | 0.0 | 0.00 | 0.22 | 0.21 | 84 | 1013.6 |
| 20260904013022 | 65 | 167 | 0.0 | 0.0 | 0.00 | 0.22 | 0.21 | 85 | 1013.5 |
| 20260904011523 | 66 | 166 | 0.0 | 0.0 | 0.00 | 0.22 | 0.21 | 86 | 1013.5 |
| 20260904010122 | 66 | 166 | 0.0 | 0.0 | 0.00 | 0.22 | 0.21 | 90 | 1013.2 |
| 20260904004521 | 66 | 167 | 0.0 | 0.0 | 0.00 | 0.32 | 0.21 | 92 | 1012.9 |
| 20260904003023 | 67 | 166 | 0.0 | 0.0 | 0.00 | 0.32 | 0.21 | 93 | 1012.6 |
| 20260904001520 | 68 | 166 | 0.0 | 0.0 | 0.00 | 0.32 | 0.21 | 94 | 1012.4 |
| 20260904000020 | 69 | 165 | 0.0 | 0.0 | 0.00 | 0.32 | 0.21 | 94 | 1012.5 |
| 20260903234519 | 70 | 165 | 0.0 | 0.0 | 0.00 | 0.33 | 0.21 | 94 | 1012.6 |
| 20260903233018 | 69 | 183 | 0.0 | 0.0 | 0.00 | 0.33 | 0.21 | 84 | 1012.7 |
| 20260903231529 | 67 | 71 | 0.0 | 0.0 | 0.00 | 0.33 | 0.21 | 90 | 1012.4 |
| 20260903230024 | 67 | 71 | 0.0 | 0.0 | 0.01 | 0.33 | 0.21 | 91 | 1012.4 |
| 20260903224531 | 67 | 70 | 0.0 | 0.0 | 0.01 | 0.35 | 0.21 | 92 | 1012.2 |
| 20260903223015 | 67 | 153 | 0.0 | 1.0 | 0.01 | 0.35 | 0.21 | 93 | 1011.1 |
| 20260903221515 | 68 | 142 | 0.0 | 1.0 | 0.02 | 0.35 | 0.21 | 94 | 1011.4 |
| 20260903220014 | 68 | 43 | 11.0 | 15.0 | 0.06 | 0.35 | 0.20 | 93 | 1011.6 |
| 20260903214528 | 68 | 20 | 14.0 | 17.0 | 0.10 | 0.42 | 0.20 | 94 | 1012.3 |
| 20260903213011 | 69 | 8 | 7.0 | 10.0 | 0.12 | 0.42 | 0.20 | 89 | 1012.5 |
| 20260903211510 | 69 | 355 | 0.0 | 6.0 | 0.14 | 0.40 | 0.19 | 90 | 1012.7 |
| 20260903210010 | 70 | 338 | 7.0 | 10.0 | 0.12 | 0.35 | 0.13 | 89 | 1013.7 |
| 20260903204511 | 70 | 329 | 7.0 | 10.0 | 0.09 | 0.31 | 0.10 | 90 | 1013.9 |
| 20260903203007 | 70 | 307 | 6.0 | 11.0 | 0.08 | 0.30 | 0.09 | 87 | 1013.6 |
| 20260903201507 | 71 | 304 | 7.0 | 10.0 | 0.04 | 0.26 | 0.05 | 88 | 1014.0 |
| 20260903200004 | 71 | 4 | 7.0 | 11.0 | 0.01 | 0.23 | 0.02 | 90 | 1013.3 |
| 20260903194506 | 71 | 32 | 8.0 | 11.0 | 0.00 | 0.22 | 0.01 | 89 | 1012.3 |
| 20260903193002 | 71 | 36 | 6.0 | 8.0 | 0.00 | 0.22 | 0.01 | 89 | 1012.1 |
| 20260903191502 | 71 | 40 | 8.0 | 9.0 | 0.00 | 0.22 | 0.01 | 89 | 1012.0 |
| 20260903190003 | 71 | 37 | 8.0 | 8.0 | 0.00 | 0.22 | 0.01 | 91 | 1012.3 |
| 20260903184601 | 72 | 26 | 6.0 | 7.0 | 0.00 | 0.22 | 0.01 | 92 | 1012.4 |